Le nostre stazioni meteo in Italia

Pubblicità
Il mio iltempo24.it
Mte.Calamita, Italia (16197): Temperatura & dewpoint: 16.11.2019 08:00:00 - 22.11.2019 08:00:00 (CET)Mte.Calamita, Italia (16197): velocità del vento: 16.11.2019 08:00:00 - 22.11.2019 08:00:00 (CET)Mte.Calamita, Italia (16197): direzione del vento: 16.11.2019 08:00:00 - 22.11.2019 08:00:00 (CET)Mte.Calamita, Italia (16197): reduced air pressure: 16.11.2019 08:00:00 - 22.11.2019 08:00:00 (CET)Mte.Calamita, Italia (16197): visibility: 16.11.2019 08:00:00 - 22.11.2019 08:00:00 (CET)Mte.Calamita, Italia (16197): ore di luce: 16.11.2019 08:00:00 - 22.11.2019 08:00:00 (CET)
Data & Tempo tt [°C] td [°C] ff [km/h] ff [kn] dd ppp [hPa] vv [km] sd [min]
22.11.2019 08:00:00 - - - - - - - -
22.11.2019 07:00:00 11,8 10,0 34 18 SSO 1009,5 25 0
22.11.2019 06:00:00 - - - - - - - -
22.11.2019 05:00:00 - - - - - - - -
22.11.2019 04:00:00 - - - - - - - -
22.11.2019 03:00:00 - - - - - - - -
22.11.2019 02:00:00 - - - - - - - -
22.11.2019 01:00:00 - - - - - - - -
22.11.2019 00:00:00 - - - - - - - -
21.11.2019 23:00:00 - - - - - - - -
21.11.2019 22:00:00 - - - - - - - -
21.11.2019 21:00:00 - - - - - - - -
21.11.2019 20:00:00 11,0 10,0 28 15 S - 10 -
21.11.2019 19:00:00 11,8 9,7 13 7 S 1009,7 30 0
21.11.2019 18:00:00 12,0 9,0 13 7 S - 10 -
21.11.2019 17:00:00 12,0 10,0 13 7 S - 10 -
21.11.2019 16:00:00 12,4 8,9 18 10 SSE 1008,7 40 0
21.11.2019 15:00:00 13,0 8,0 15 8 SSE - 10 -
21.11.2019 14:00:00 13,0 11,0 13 7 S - 10 -
21.11.2019 13:00:00 13,2 8,9 13 7 S 1009,1 40 0
21.11.2019 12:00:00 13,0 10,0 18 10 S - 10 -
21.11.2019 11:00:00 12,0 9,0 16 9 SSE - 10 -
21.11.2019 10:00:00 11,8 6,7 15 8 SSE 1010,3 30 0
21.11.2019 09:00:00 11,0 8,0 13 7 S - 10 -
21.11.2019 08:00:00 11,0 7,0 11 6 S - 10 -
21.11.2019 07:00:00 10,8 8,7 4 2 SSE 1010,5 20 0
21.11.2019 06:00:00 - - - - - - - -
21.11.2019 05:00:00 - - - - - - - -
21.11.2019 04:00:00 - - - - - - - -
21.11.2019 03:00:00 - - - - - - - -
21.11.2019 02:00:00 - - - - - - - -
21.11.2019 01:00:00 - - - - - - - -
21.11.2019 00:00:00 - - - - - - - -
20.11.2019 23:00:00 - - - - - - - -
20.11.2019 22:00:00 - - - - - - - -
20.11.2019 21:00:00 - - - - - - - -
20.11.2019 20:00:00 10,0 8,0 2 1 NNE - 10 -
20.11.2019 19:00:00 10,0 8,1 2 1 N 1011,4 10 0
20.11.2019 18:00:00 11,0 9,0 2 1 N - 10 -
20.11.2019 17:00:00 12,0 10,0 2 1 N - 10 -
20.11.2019 16:00:00 12,0 9,4 2 1 N 1010,6 15 0
20.11.2019 15:00:00 11,0 9,0 2 1 N - 10 -
20.11.2019 14:00:00 11,0 10,0 2 1 N - 10 -
20.11.2019 13:00:00 11,4 9,5 2 1 NNE 1011,5 4,0 0
20.11.2019 12:00:00 11,0 9,0 5 3 NNO - 0,4 -
20.11.2019 11:00:00 11,0 9,0 4 2 NNE - 10 -
20.11.2019 10:00:00 10,0 8,4 2 1 NNE 1011,4 15 0
20.11.2019 09:00:00 10,0 8,0 4 2 SSE - 10 -
20.11.2019 08:00:00 9,0 7,0 5 3 SSE - 10 -
20.11.2019 07:00:00 9,0 6,6 5 3 SSE 1011,2 15 0
20.11.2019 06:00:00 - - - - - - - -
20.11.2019 05:00:00 - - - - - - - -
20.11.2019 04:00:00 - - - - - - - -
20.11.2019 03:00:00 - - - - - - - -
20.11.2019 02:00:00 - - - - - - - -
20.11.2019 01:00:00 - - - - - - - -
20.11.2019 00:00:00 - - - - - - - -
19.11.2019 23:00:00 - - - - - - - -
19.11.2019 22:00:00 - - - - - - - -
19.11.2019 21:00:00 - - - - - - - -
19.11.2019 20:00:00 12,0 10,0 13 7 SSE - 10 -
19.11.2019 19:00:00 11,8 10,2 15 8 SSE 1010,6 10 0
19.11.2019 18:00:00 12,0 10,0 13 7 SSE - 10 -
19.11.2019 17:00:00 12,0 10,0 15 8 SSE - 10 -
19.11.2019 16:00:00 12,0 10,1 15 8 SSE 1009,7 30 0
19.11.2019 15:00:00 12,0 10,0 15 8 SSE - 10 -
19.11.2019 14:00:00 13,0 11,0 18 10 SSE - 10 -
19.11.2019 13:00:00 12,0 10,2 26 14 SSE 1008,8 10 0
19.11.2019 12:00:00 12,0 10,0 22 12 SSE - 10 -
19.11.2019 11:00:00 12,0 10,0 22 12 SSE - 10 -
19.11.2019 10:00:00 12,0 10,6 29 16 S 1008,4 0,2 0
19.11.2019 09:00:00 12,0 11,0 44 24 S - 5 -
19.11.2019 08:00:00 13,0 11,0 50 27 S - 5 -
19.11.2019 07:00:00 13,0 11,4 50 27 S 1006,3 7 0
19.11.2019 06:00:00 - - - - - - - -
19.11.2019 05:00:00 - - - - - - - -
19.11.2019 04:00:00 - - - - - - - -
19.11.2019 03:00:00 - - - - - - - -
19.11.2019 02:00:00 - - - - - - - -
19.11.2019 01:00:00 - - - - - - - -
19.11.2019 00:00:00 - - - - - - - -
18.11.2019 23:00:00 - - - - - - - -
18.11.2019 22:00:00 - - - - - - - -
18.11.2019 21:00:00 - - - - - - - -
18.11.2019 20:00:00 12,0 11,0 46 25 S - 7 -
18.11.2019 19:00:00 13,0 8,9 42 23 S 1008,2 10 0
18.11.2019 18:00:00 12,0 8,0 37 20 S - 10 -
18.11.2019 17:00:00 12,0 11,0 41 22 S - 8 -
18.11.2019 16:00:00 11,6 10,4 34 18 S 1008,4 8 0
18.11.2019 15:00:00 11,0 11,0 37 20 SSE - 10 -
18.11.2019 14:00:00 13,0 10,0 21 11 S - 10 -
18.11.2019 13:00:00 12,0 8,8 18 10 S 1009,4 20 0
18.11.2019 12:00:00 12,0 9,0 15 8 SSO - 10 -
18.11.2019 11:00:00 12,0 10,0 15 8 SO - 10 -
18.11.2019 10:00:00 12,0 9,5 13 7 SSO 1009,7 20 0
18.11.2019 09:00:00 11,0 8,0 9 5 SSO - 10 -
18.11.2019 08:00:00 10,0 8,0 9 5 SSO - 10 -
18.11.2019 07:00:00 10,0 7,8 8 4 SSO 1009,0 15 0
18.11.2019 06:00:00 - - - - - - - -
18.11.2019 05:00:00 - - - - - - - -
18.11.2019 04:00:00 - - - - - - - -
18.11.2019 03:00:00 - - - - - - - -
18.11.2019 02:00:00 - - - - - - - -
18.11.2019 01:00:00 - - - - - - - -
18.11.2019 00:00:00 - - - - - - - -
17.11.2019 23:00:00 - - - - - - - -
17.11.2019 22:00:00 - - - - - - - -
17.11.2019 21:00:00 - - - - - - - -
17.11.2019 20:00:00 10,0 6,0 5 3 ONO - 10 -
17.11.2019 19:00:00 10,0 7,2 9 5 SSO 1005,8 10 0
17.11.2019 18:00:00 10,0 7,0 5 3 SSO - 10 -
17.11.2019 17:00:00 10,0 7,0 5 3 O - 10 -
17.11.2019 16:00:00 11,0 6,2 9 5 ONO 1004,2 30 60
17.11.2019 15:00:00 12,0 6,0 13 7 ONO - 10 -
17.11.2019 14:00:00 10,0 6,0 11 6 ONO - 10 -
17.11.2019 13:00:00 10,0 7,6 15 8 N 1002,6 40 0
17.11.2019 12:00:00 10,0 7,0 29 16 NNO - 10 -
17.11.2019 11:00:00 9,0 7,0 28 15 NNO - 10 -
17.11.2019 10:00:00 9,0 7,0 31 17 ONO 1000,7 10 0
17.11.2019 09:00:00 9,0 7,0 29 16 ONO - 7 -
17.11.2019 08:00:00 10,0 8,0 8 4 N - 0,8 -
17.11.2019 07:00:00 10,0 8,1 9 5 N 997,2 0,4 0
17.11.2019 06:00:00 - - - - - - - -
17.11.2019 05:00:00 - - - - - - - -
17.11.2019 04:00:00 - - - - - - - -
17.11.2019 03:00:00 - - - - - - - -
17.11.2019 02:00:00 - - - - - - - -
17.11.2019 01:00:00 - - - - - - - -
17.11.2019 00:00:00 - - - - - - - -
16.11.2019 23:00:00 - - - - - - - -
16.11.2019 22:00:00 - - - - - - - -
16.11.2019 21:00:00 - - - - - - - -
16.11.2019 20:00:00 8,0 6,0 29 16 NNE - 8 -
16.11.2019 19:00:00 8,2 6,8 28 15 NNE 1004,8 8 0
16.11.2019 18:00:00 8,0 7,0 4 2 ESE - 5 -
16.11.2019 17:00:00 9,0 8,0 4 2 ENE - 3,0 -
16.11.2019 16:00:00 9,0 8,4 4 2 SSE 1008,0 0,8 0
16.11.2019 15:00:00 11,0 9,0 4 2 SSE - 10 -
16.11.2019 14:00:00 11,0 8,0 5 3 SSE - 10 -
16.11.2019 13:00:00 11,2 8,2 5 3 S 1009,0 70 0
16.11.2019 12:00:00 11,0 8,0 8 4 SSO - 10 -
16.11.2019 11:00:00 11,0 7,0 9 5 SSO - 10 -
16.11.2019 10:00:00 11,0 7,1 5 3 SSO 1009,6 70 0
16.11.2019 09:00:00 10,0 7,0 5 3 SSO - 10 -
16.11.2019 08:00:00 10,0 7,0 15 8 SSO - 10 -

tt = Temperatura
td = dewpoint
ff = velocità del vento
dd = direzione del vento
ppp = reduced air pressure
vv = visibility
sd = ore di luce

Stazioni seguenti

WeatherPro
AMSI
MeteoEarth